Погода в Атакенте

Казахстан     40°50′39″N   68°30′41″E
темп.,
°C
ветер,
м/с
пор.,
м/с
влажн.,
%
обл.,
%
осадки,
мм/ч
давл.,
гПа
погр.,
м
2 марта, вт
вт200:00+10ююв5103611 0.0 1022152
03:00+9ю354283 0.0 102270
06:00+9ю234592 0.0 102226
09:00+9ю234299 0.0 102332
12:00+14ю2230100 0.0 1023318
15:00+16ссз2226100 0.0 10221071
18:00+14ссз4535100 0.0 1021551
21:00+11с4844100 0.0 1023269
3 марта, ср
ср300:00+9с4753100 0.0 1024261
03:00+8ссз2458100 0.0 1024166
06:00+6с3667100 0.0 1024225
09:00+6ссв227394 0.0 1024129
12:00+11зюз115183 0.0 1022414
15:00+14зюз22458 0.0 10201060
18:00+14зсз344554 0.0 10201357
21:00+11св1361100 0.0 1022144
4 марта, чт
чт400:00+9в1280100 0.0 102237
03:00+9юв228561 0.0 102123
06:00+8юв368530 0.0 1021145
09:00+8юв4108017 0.1 1021294
12:00+14ююв695452 0.1 1019564
15:00+18ююв673931 0.0 10171496
18:00+17ююв684232 0.1 1016840
21:00+13ююв71356100 1.3 1020411
5 марта, пт
пт500:00+11сз7106199 2.3 1025877
03:00+6сз698499 3.1 1028739
06:00+5с3473100 5.4 1031632
09:00+4ссв347468 0.0 1032321
12:00+8св116145 0.0 1030746
15:00+10всв33480 0.0 1026957
18:00+12всв23440 0.0 1024873
21:00+9с23520 0.0 102442
6 марта, сб
сб600:00+8св355944 0.0 1021120
03:00+7ссв235955 0.0 101737
06:00+7ссв345676 0.0 101470
09:00+8ссв3541100 0.0 1012101
12:00+13зсз3431100 0.0 1011353
15:00+14зсз5633100 0.0 1011634
18:00+14ссз3536100 0.0 1012450
21:00+12св2345100 0.0 1014110